Weather History for KTBN - December, 2011

Change the Weather History Date:

Saturday, December 3, 2011

  Actual Average Record
Temperature  
Mean Temperature 51 °F -  
Max Temperature 58 °F 48 °F 73 °F (2012)
Min Temperature 44 °F 34 °F 19 °F (2006)
Degree Days  
Heating Degree Days 14    
Growing Degree Days 1 (Base 50)    
Moisture  
Dew Point 48 °F    
Average Humidity 85    
Maximum Humidity 100    
Minimum Humidity 59    
Precipitation  
Precipitation 0.27 in - - ()
Sea Level Pressure  
Sea Level Pressure 30.03 in    
Wind  
Wind Speed 13 mph (SSE)    
Max Wind Speed 22 mph    
Max Gust Speed 33 mph    
Visibility 10 miles    
Events Rain    
Averages and records for this station are not official NWS values.
T = Trace of Precipitation, MM = Missing Value Source: NWS Daily Summary

Daily Weather History Graph

Daily Weather History Graph

Search for Another Location

Airport or City:

Trip Planner

Search our weather history database for the weather conditions in past years. The results will help you decide how hot, cold, wet, or windy it might be!

Date:

Astronomy

Dec. 03, 2011 Rise Set
Actual Time 7:06 AM CST 4:49 PM CST
Civil Twilight 6:37 AM CST 5:18 PM CST
Nautical Twilight 6:05 AM CST 5:51 PM CST
Astronomical Twilight 5:33 AM CST 6:22 PM CST
Moon 12:49 PM CST (12/3) 12:41 AM CST (12/3)
Length of Visible Light 10h 40m
Length of Day
9h 43m
Waxing Gibbous, 63% of the Moon is Illuminated
Dec 3
Waxing Gibbous
Dec 10
Full
Dec 17
Last Quarter
Dec 24
New
Jan 1
First Quarter

Hourly Weather History & Observations

Time (CST) Temp. Windchill Dew Point Humidity Pressure Visibility Wind Dir Wind Speed Gust Speed Precip Events Conditions
12:55 AM 44.8 °F 39.9 °F 38.1 °F 77% 30.27 in 10.0 mi South 9.2 mph 17.3 mph N/A   Mostly Cloudy
1:55 AM 44.2 °F 38.0 °F 39.2 °F 82% 30.25 in 10.0 mi SSE 12.7 mph - N/A   Overcast
2:55 AM 44.4 °F 39.5 °F 39.7 °F 84% 30.25 in 10.0 mi SSE 9.2 mph - N/A   Mostly Cloudy
3:55 AM 44.2 °F 38.4 °F 39.4 °F 83% 30.23 in 10.0 mi SSE 11.5 mph - N/A   Overcast
4:55 AM 44.2 °F 39.2 °F 39.2 °F 82% 30.23 in 10.0 mi SSE 9.2 mph - N/A   Scattered Clouds
5:55 AM 45.1 °F 40.3 °F 38.5 °F 77% 30.23 in 10.0 mi SSE 9.2 mph - N/A   Mostly Cloudy
6:55 AM 45.7 °F 41.0 °F 37.9 °F 74% 30.22 in 10.0 mi SSE 9.2 mph - N/A   Overcast
7:55 AM 45.5 °F 40.3 °F 38.1 °F 75% 30.21 in 10.0 mi SE 10.4 mph - N/A   Overcast
8:55 AM 47.7 °F - 37.0 °F 67% 30.21 in 10.0 mi SSE 11.5 mph - N/A   Overcast
9:55 AM 52.5 °F - 38.7 °F 59% 30.18 in 10.0 mi SSE 17.3 mph 25.3 mph N/A   Overcast
10:55 AM 56.7 °F - 42.6 °F 59% 30.14 in 10.0 mi South 12.7 mph 23.0 mph N/A   Clear
11:55 AM 58.8 °F - 45.1 °F 60% 30.07 in 10.0 mi SSE 20.7 mph 33.4 mph N/A   Mostly Cloudy
12:55 PM 58.1 °F - 46.4 °F 65% 30.03 in 10.0 mi SSE 20.7 mph 28.8 mph N/A   Overcast
1:55 PM 57.0 °F - 47.1 °F 69% 29.98 in 10.0 mi SSE 21.9 mph 31.1 mph N/A   Scattered Clouds
2:10 PM 57.2 °F - 48.2 °F 72% 29.99 in 10.0 mi South 16.1 mph 25.3 mph N/A   Mostly Cloudy
2:12 PM 57.2 °F - 48.2 °F 72% 29.99 in 10.0 mi SSE 15.0 mph 25.3 mph N/A Rain Light Rain
2:25 PM 57.2 °F - 48.2 °F 72% 30.00 in 10.0 mi SSE 21.9 mph 31.1 mph N/A   Overcast
2:37 PM 57.2 °F - 48.2 °F 72% 30.00 in 10.0 mi South 11.5 mph 23.0 mph N/A   Light Drizzle
2:51 PM 55.4 °F - 48.2 °F 77% 30.01 in 10.0 mi South 11.5 mph 24.2 mph N/A   Overcast
2:55 PM 56.3 °F - 47.7 °F 73% 30.00 in 10.0 mi South 13.8 mph 20.7 mph 0.00 in   Overcast
3:55 PM 57.6 °F - 48.4 °F 71% 30.00 in 10.0 mi SSE 12.7 mph 27.6 mph N/A   Overcast
4:04 PM 57.2 °F - 48.2 °F 72% 30.00 in 10.0 mi South 13.8 mph 21.9 mph N/A Rain Light Rain
4:21 PM 55.4 °F - 50.0 °F 82% 30.00 in 7.0 mi South 12.7 mph 23.0 mph N/A Rain Light Rain
4:26 PM 53.6 °F - 50.0 °F 88% 30.00 in 8.0 mi South 11.5 mph 24.2 mph N/A   Overcast
4:28 PM 53.6 °F - 51.8 °F 94% 30.00 in 8.0 mi SSE 11.5 mph 24.2 mph N/A Rain Light Rain
4:55 PM 53.1 °F - 51.3 °F 94% 29.98 in 7.0 mi SSE 16.1 mph 21.9 mph 0.07 in Rain Light Rain
5:26 PM 53.6 °F - 51.8 °F 94% 29.97 in 10.0 mi SSE 17.3 mph 26.5 mph N/A   Overcast
5:40 PM 53.6 °F - 51.8 °F 94% 29.96 in 10.0 mi SSE 18.4 mph 24.2 mph N/A Rain Light Rain
5:55 PM 53.2 °F - 51.8 °F 95% 29.96 in 10.0 mi SSE 16.1 mph 26.5 mph 0.02 in Rain Light Rain
6:49 PM 53.6 °F - 51.8 °F 94% 29.98 in 10.0 mi SSE 15.0 mph 24.2 mph N/A   Overcast
6:55 PM 53.1 °F - 52.0 °F 96% 29.98 in 10.0 mi SSE 15.0 mph 26.5 mph 0.03 in   Overcast
7:00 PM 53.6 °F - 51.8 °F 94% 29.98 in 10.0 mi SSE 17.3 mph 26.5 mph N/A   Light Drizzle
7:25 PM 53.6 °F - 51.8 °F 94% 29.97 in 10.0 mi SSE 16.1 mph 23.0 mph N/A   Overcast
7:27 PM 53.6 °F - 51.8 °F 94% 29.97 in 10.0 mi SSE 17.3 mph 23.0 mph N/A Rain Light Rain
7:47 PM 53.6 °F - 51.8 °F 94% 29.97 in 10.0 mi SSE 16.1 mph 24.2 mph N/A   Overcast
7:50 PM 53.6 °F - 51.8 °F 94% 29.97 in 10.0 mi SSE 17.3 mph 24.2 mph N/A Rain Light Rain
7:55 PM 53.2 °F - 52.3 °F 97% 29.96 in 10.0 mi SSE 16.1 mph 25.3 mph 0.01 in Rain Light Rain
8:55 PM 53.2 °F - 53.1 °F 99% 29.96 in 9.0 mi SSE 15.0 mph 23.0 mph 0.03 in Rain Light Rain
9:44 PM 53.6 °F - 53.6 °F 100% 29.96 in 10.0 mi South 11.5 mph - N/A   Overcast
9:46 PM 53.6 °F - 53.6 °F 100% 29.95 in 10.0 mi SSE 15.0 mph - N/A   Mostly Cloudy
9:49 PM 53.6 °F - 53.6 °F 100% 29.95 in 10.0 mi South 12.7 mph 18.4 mph N/A Rain Light Rain
9:55 PM 53.6 °F - 53.2 °F 99% 29.95 in 10.0 mi SSE 12.7 mph - 0.05 in Rain Light Rain
10:12 PM 53.6 °F - 53.6 °F 100% 29.96 in 10.0 mi South 10.4 mph 20.7 mph N/A   Light Drizzle
10:36 PM 53.6 °F - 53.6 °F 100% 29.95 in 10.0 mi South 15.0 mph 21.9 mph N/A Rain Light Rain
10:55 PM 54.0 °F - 54.0 °F 100% 29.96 in 10.0 mi South 11.5 mph 17.3 mph 0.03 in Rain Light Rain
11:18 PM 53.6 °F - 53.6 °F 100% 29.96 in 10.0 mi South 11.5 mph 20.7 mph N/A Rain Light Rain
11:35 PM 53.6 °F - 53.6 °F 100% 29.94 in 10.0 mi South 12.7 mph 23.0 mph N/A Rain Light Rain
11:55 PM 54.5 °F - 54.5 °F 100% 29.92 in 10.0 mi South 9.2 mph 18.4 mph 0.03 in Rain Light Rain